Location: Epalinges
(46.5518°N, 6.6683°E)
Time: 17:33:15
(UTC+00:00)

CZ-4C R/B - Pass Details

Date: 20 June 2021
Orbit: 464 x 632 km, 98.0° (Epoch: 31 July)

Event Time Altitude Azimuth Distance (km) Brightness Sun altitude
Exits shadow 02:19:47 - 164° (SSE) 2,180 6.0 -10.7°
Reaches altitude 10° 02:21:05 10° 164° (SSE) 1,618 5.4 -10.6°
Maximum altitude 02:24:32 87° 79° (E) 472 3.0 -10.2°
Drops below altitude 10° 02:28:02 10° 347° (NNW) 1,635 6.3 -9.8°
Sets 02:30:06 0° 347° (NNW) 2,527 7.3 -9.6°
